TimeEST,TemperatureF,Dew PointF,Humidity,Sea Level PressureIn,VisibilityMPH,Wind Direction,Wind SpeedMPH,Gust SpeedMPH,PrecipitationIn,Events,Conditions,WindDirDegrees,DateUTC
12:52 AM,35.1,30.9,85,30.25,10.0,Calm,Calm,-,N/A,,Overcast,0,2013-02-26 05:52:00
1:52 AM,35.1,30.9,85,30.25,10.0,Calm,Calm,-,N/A,,Overcast,0,2013-02-26 06:52:00
2:52 AM,34.0,30.9,89,30.27,10.0,NW,3.5,-,N/A,,Overcast,320,2013-02-26 07:52:00
3:52 AM,34.0,30.0,85,30.28,10.0,Calm,Calm,-,N/A,,Overcast,0,2013-02-26 08:52:00
4:52 AM,30.9,30.0,96,30.29,6.0,Calm,Calm,-,N/A,,Overcast,0,2013-02-26 09:52:00
5:52 AM,30.9,30.0,96,30.30,5.0,Calm,Calm,-,N/A,,Overcast,0,2013-02-26 10:52:00
6:52 AM,30.9,30.0,96,30.31,4.0,Calm,Calm,-,N/A,,Overcast,0,2013-02-26 11:52:00
7:19 AM,32.0,28.4,87,30.30,2.5,Calm,Calm,-,N/A,,Scattered Clouds,0,2013-02-26 12:19:00
7:26 AM,32.0,30.2,93,30.30,4.0,Calm,Calm,-,N/A,,Partly Cloudy,0,2013-02-26 12:26:00
7:52 AM,34.0,30.0,85,30.33,7.0,Calm,Calm,-,N/A,,Clear,0,2013-02-26 12:52:00
8:52 AM,37.0,30.0,76,30.34,10.0,East,3.5,-,N/A,,Clear,100,2013-02-26 13:52:00
10:52 AM,39.9,28.9,65,30.34,10.0,Calm,Calm,-,N/A,,Partly Cloudy,0,2013-02-26 15:52:00
11:52 AM,39.9,28.0,63,30.32,10.0,ENE,8.1,-,N/A,,Mostly Cloudy,70,2013-02-26 16:52:00
12:52 PM,41.0,28.0,60,30.31,10.0,ESE,6.9,-,N/A,,Overcast,110,2013-02-26 17:52:00
1:52 PM,41.0,28.0,60,30.30,10.0,East,4.6,-,N/A,,Overcast,80,2013-02-26 18:52:00
3:52 PM,39.9,28.0,63,30.28,10.0,Variable,4.6,-,N/A,,Overcast,0,2013-02-26 20:52:00
4:52 PM,39.9,27.0,60,30.27,10.0,ESE,5.8,-,N/A,,Overcast,110,2013-02-26 21:52:00
5:52 PM,37.9,24.1,57,30.27,10.0,East,9.2,-,N/A,,Partly Cloudy,100,2013-02-26 22:52:00
6:52 PM,37.0,26.1,65,30.26,10.0,East,5.8,-,N/A,,Clear,90,2013-02-26 23:52:00
7:52 PM,36.0,27.0,70,30.27,10.0,Calm,Calm,-,N/A,,Clear,0,2013-02-27 00:52:00
8:52 PM,35.1,27.0,72,30.25,10.0,Calm,Calm,-,N/A,,Clear,0,2013-02-27 01:52:00
9:52 PM,34.0,27.0,75,30.22,10.0,ENE,3.5,-,N/A,,Clear,60,2013-02-27 02:52:00
10:52 PM,34.0,27.0,75,30.19,10.0,ENE,3.5,-,N/A,,Scattered Clouds,60,2013-02-27 03:52:00
11:10 PM,33.8,26.6,75,30.17,10.0,ENE,3.5,-,N/A,,Mostly Cloudy,70,2013-02-27 04:10:00